| time (UTC) | temp F | wind direction | speed MPH | gust MPH | rain 1hr in | rain 24hr in | rain mn in | humidity % | barometer mb |
| 20260504205410 | 66 | 47 | 12.0 | 15.0 | 0.00 | 0.00 | 0.00 | 30 | 1004.8 |
| 20260504204908 | 66 | 29 | 11.0 | 13.0 | 0.00 | 0.00 | 0.00 | 30 | 1004.6 |
| 20260504204406 | 67 | 31 | 12.0 | 14.0 | 0.00 | 0.00 | 0.00 | 31 | 1004.6 |
| 20260504203905 | 67 | 37 | 10.0 | 13.0 | 0.00 | 0.00 | 0.00 | 30 | 1004.8 |
| 20260504203402 | 66 | 42 | 9.0 | 13.0 | 0.00 | 0.00 | 0.00 | 31 | 1004.9 |
| 20260504202857 | 69 | 39 | 9.0 | 10.0 | 0.00 | 0.00 | 0.00 | 30 | 1004.9 |
| 20260504202355 | 69 | 54 | 13.0 | 15.0 | 0.00 | 0.00 | 0.00 | 28 | 1004.7 |
| 20260504201851 | 68 | 50 | 10.0 | 11.0 | 0.00 | 0.00 | 0.00 | 29 | 1004.9 |
| 20260504201349 | 68 | 50 | 11.0 | 14.0 | 0.00 | 0.00 | 0.00 | 30 | 1005.1 |
| 20260504200846 | 69 | 45 | 10.0 | 13.0 | 0.00 | 0.00 | 0.00 | 30 | 1004.9 |
| 20260504200343 | 69 | 29 | 12.0 | 15.0 | 0.00 | 0.00 | 0.00 | 29 | 1004.7 |
| 20260504195839 | 69 | 32 | 21.0 | 25.0 | 0.00 | 0.00 | 0.00 | 30 | 1004.5 |
| 20260504195334 | 69 | 54 | 13.0 | 15.0 | 0.00 | 0.00 | 0.00 | 29 | 1004.6 |
| 20260504194832 | 69 | 29 | 13.0 | 17.0 | 0.00 | 0.00 | 0.00 | 28 | 1004.5 |
| 20260504194327 | 69 | 33 | 11.0 | 13.0 | 0.00 | 0.00 | 0.00 | 28 | 1004.9 |
| 20260504193823 | 69 | 44 | 13.0 | 15.0 | 0.00 | 0.00 | 0.00 | 29 | 1004.9 |
| 20260504193321 | 70 | 31 | 17.0 | 20.0 | 0.00 | 0.00 | 0.00 | 28 | 1004.7 |
| 20260504192820 | 70 | 38 | 9.0 | 14.0 | 0.00 | 0.00 | 0.00 | 30 | 1004.7 |
| 20260504192317 | 70 | 34 | 12.0 | 14.0 | 0.00 | 0.00 | 0.00 | 30 | 1005.1 |
| 20260504191816 | 70 | 31 | 13.0 | 16.0 | 0.00 | 0.00 | 0.00 | 29 | 1005.1 |
| 20260504191313 | 68 | 34 | 20.0 | 23.0 | 0.00 | 0.00 | 0.00 | 30 | 1004.8 |
| 20260504190808 | 69 | 32 | 10.0 | 13.0 | 0.00 | 0.00 | 0.00 | 31 | 1004.8 |
| 20260504190304 | 70 | 27 | 15.0 | 18.0 | 0.00 | 0.00 | 0.00 | 31 | 1004.8 |
| 20260504185801 | 69 | 36 | 16.0 | 20.0 | 0.00 | 0.00 | 0.00 | 31 | 1004.6 |
| 20260504185258 | 69 | 32 | 15.0 | 17.0 | 0.00 | 0.00 | 0.00 | 32 | 1004.8 |
| 20260504184754 | 70 | 32 | 15.0 | 20.0 | 0.00 | 0.00 | 0.00 | 31 | 1004.7 |
| 20260504184250 | 69 | 33 | 19.0 | 23.0 | 0.00 | 0.00 | 0.00 | 31 | 1004.7 |
| 20260504183746 | 69 | 47 | 7.0 | 9.0 | 0.00 | 0.00 | 0.00 | 30 | 1004.6 |
| 20260504183243 | 72 | 42 | 8.0 | 11.0 | 0.00 | 0.00 | 0.00 | 28 | 1004.8 |
| 20260504182741 | 72 | 40 | 5.0 | 7.0 | 0.00 | 0.00 | 0.00 | 27 | 1004.7 |
| 20260504182238 | 69 | 51 | 9.0 | 13.0 | 0.00 | 0.00 | 0.00 | 30 | 1004.5 |
| 20260504181736 | 69 | 33 | 12.0 | 16.0 | 0.00 | 0.00 | 0.00 | 30 | 1004.5 |
| 20260504181233 | 72 | 43 | 10.0 | 11.0 | 0.00 | 0.00 | 0.00 | 28 | 1004.4 |
| 20260504180732 | 71 | 36 | 7.0 | 9.0 | 0.00 | 0.00 | 0.00 | 26 | 1004.4 |
| 20260504180231 | 68 | 39 | 9.0 | 10.0 | 0.00 | 0.00 | 0.00 | 29 | 1004.4 |
| 20260504175728 | 69 | 32 | 13.0 | 16.0 | 0.00 | 0.00 | 0.00 | 28 | 1004.0 |
| 20260504175224 | 70 | 42 | 10.0 | 14.0 | 0.00 | 0.00 | 0.00 | 27 | 1004.1 |
| 20260504174722 | 77 | 37 | 2.0 | 5.0 | 0.00 | 0.00 | 0.00 | 21 | 1004.4 |
| 20260504174220 | 77 | 64 | 0.0 | 1.0 | 0.00 | 0.00 | 0.00 | 21 | 1003.9 |
| 20260504173716 | 76 | 224 | 0.0 | 2.0 | 0.00 | 0.00 | 0.00 | 21 | 1004.0 |
| 20260504173213 | 73 | 59 | 0.0 | 0.0 | 0.00 | 0.00 | 0.00 | 22 | 1004.0 |
| 20260504172709 | 73 | 33 | 1.0 | 2.0 | 0.00 | 0.00 | 0.00 | 22 | 1003.9 |
| 20260504172206 | 72 | 111 | 6.0 | 8.0 | 0.00 | 0.00 | 0.00 | 23 | 1004.0 |
| 20260504171703 | 73 | 51 | 7.0 | 13.0 | 0.00 | 0.00 | 0.00 | 23 | 1004.0 |
| 20260504171200 | 71 | 111 | 0.0 | 0.0 | 0.00 | 0.00 | 0.00 | 23 | 1003.9 |
| 20260504170656 | 70 | 124 | 3.0 | 6.0 | 0.00 | 0.00 | 0.00 | 24 | 1003.8 |
| 20260504170154 | 72 | 136 | 6.0 | 7.0 | 0.00 | 0.00 | 0.00 | 24 | 1003.9 |
| 20260504160112 | 73 | 31 | 1.0 | 3.0 | 0.00 | 0.00 | 0.00 | 22 | 1004.3 |
| 20260504151039 | 68 | 46 | 0.0 | 0.0 | 0.00 | 0.00 | 0.00 | 29 | 1004.3 |
| 20260504150536 | 67 | 10 | 0.0 | 1.0 | 0.00 | 0.00 | 0.00 | 28 | 1004.6 |
| 20260504141002 | 59 | 335 | 4.0 | 5.0 | 0.00 | 0.00 | 0.00 | 37 | 1004.9 |
| 20260504140459 | 58 | 312 | 5.0 | 6.0 | 0.00 | 0.00 | 0.00 | 38 | 1004.9 |
| 20260504130424 | 46 | 324 | 5.0 | 6.0 | 0.00 | 0.00 | 0.00 | 51 | 1005.2 |
| 20260504110311 | 36 | 221 | 2.0 | 2.0 | 0.00 | 0.00 | 0.00 | 66 | 1004.4 |
| 20260504100228 | 40 | 245 | 3.0 | 3.0 | 0.00 | 0.00 | 0.00 | 62 | 1004.7 |
| 20260504081622 | 47 | 202 | 5.0 | 6.0 | 0.00 | 0.00 | 0.00 | 53 | 1005.5 |
| 20260504081117 | 46 | 198 | 3.0 | 3.0 | 0.00 | 0.00 | 0.00 | 56 | 1005.9 |
| 20260504080614 | 48 | 204 | 3.0 | 3.0 | 0.00 | 0.00 | 0.00 | 57 | 1005.6 |
| 20260504080111 | 47 | 178 | 6.0 | 6.0 | 0.00 | 0.00 | 0.00 | 53 | 1005.6 |
| 20260504050427 | 48 | 55 | 3.0 | 3.0 | 0.00 | 0.00 | 0.00 | 56 | 1007.1 |
| 20260504045924 | 48 | 44 | 0.0 | 1.0 | 0.00 | 0.00 | 0.00 | 56 | 1007.2 |
| 20260504045420 | 48 | 46 | 0.0 | 0.0 | 0.00 | 0.00 | 0.00 | 56 | 1007.3 |
| 20260504044916 | 47 | 38 | 0.0 | 0.0 | 0.00 | 0.00 | 0.00 | 56 | 1007.0 |
| 20260504044414 | 49 | 49 | 1.0 | 1.0 | 0.00 | 0.00 | 0.00 | 55 | 1007.1 |
| 20260504043911 | 50 | 49 | 5.0 | 5.0 | 0.00 | 0.00 | 0.00 | 53 | 1007.5 |
| 20260504043408 | 49 | 54 | 6.0 | 7.0 | 0.00 | 0.00 | 0.00 | 54 | 1007.6 |
| 20260504042906 | 50 | 53 | 6.0 | 7.0 | 0.00 | 0.00 | 0.00 | 52 | 1007.6 |
| 20260504042402 | 50 | 57 | 7.0 | 7.0 | 0.00 | 0.00 | 0.00 | 53 | 1007.6 |
| 20260504041858 | 50 | 64 | 3.0 | 5.0 | 0.00 | 0.00 | 0.00 | 52 | 1007.3 |
| 20260504041354 | 51 | 67 | 4.0 | 5.0 | 0.00 | 0.00 | 0.00 | 51 | 1007.5 |
| 20260504040850 | 52 | 85 | 3.0 | 3.0 | 0.00 | 0.00 | 0.00 | 50 | 1007.9 |
| 20260504040348 | 51 | 80 | 3.0 | 5.0 | 0.00 | 0.00 | 0.00 | 51 | 1007.6 |
| 20260504035844 | 51 | 103 | 3.0 | 3.0 | 0.00 | 0.00 | 0.00 | 51 | 1007.8 |
| 20260504035342 | 51 | 92 | 4.0 | 5.0 | 0.00 | 0.00 | 0.00 | 50 | 1007.8 |
| 20260504034838 | 53 | 130 | 5.0 | 7.0 | 0.00 | 0.00 | 0.00 | 48 | 1007.9 |
| 20260504034336 | 53 | 70 | 0.0 | 1.0 | 0.00 | 0.00 | 0.00 | 49 | 1007.9 |
| 20260504033833 | 53 | 62 | 3.0 | 3.0 | 0.00 | 0.00 | 0.00 | 48 | 1007.9 |
| 20260504033331 | 53 | 67 | 3.0 | 3.0 | 0.00 | 0.00 | 0.00 | 49 | 1008.0 |
| 20260504032827 | 53 | 58 | 5.0 | 7.0 | 0.00 | 0.00 | 0.00 | 48 | 1008.0 |
| 20260504032324 | 54 | 56 | 4.0 | 5.0 | 0.00 | 0.00 | 0.00 | 47 | 1008.3 |
| 20260504031821 | 54 | 67 | 3.0 | 5.0 | 0.00 | 0.00 | 0.00 | 46 | 1008.0 |
| 20260504031319 | 53 | 73 | 2.0 | 3.0 | 0.00 | 0.00 | 0.00 | 47 | 1008.1 |
| 20260504030815 | 54 | 50 | 3.0 | 3.0 | 0.00 | 0.00 | 0.00 | 46 | 1008.1 |
| 20260504030312 | 56 | 45 | 4.0 | 6.0 | 0.00 | 0.00 | 0.00 | 45 | 1008.0 |
| 20260504025808 | 56 | 50 | 5.0 | 7.0 | 0.00 | 0.00 | 0.00 | 44 | 1008.0 |
| 20260504025305 | 57 | 26 | 5.0 | 6.0 | 0.00 | 0.00 | 0.00 | 43 | 1007.6 |
| 20260504024801 | 57 | 41 | 5.0 | 8.0 | 0.00 | 0.00 | 0.00 | 42 | 1007.7 |
| 20260504024258 | 58 | 37 | 5.0 | 7.0 | 0.00 | 0.00 | 0.00 | 41 | 1007.8 |
| 20260504023755 | 59 | 41 | 7.0 | 9.0 | 0.00 | 0.00 | 0.00 | 40 | 1007.8 |
| 20260504023252 | 60 | 27 | 8.0 | 11.0 | 0.00 | 0.00 | 0.00 | 37 | 1007.7 |
| 20260504022747 | 61 | 46 | 6.0 | 9.0 | 0.00 | 0.00 | 0.00 | 35 | 1007.8 |
| 20260504022244 | 59 | 23 | 16.0 | 21.0 | 0.00 | 0.00 | 0.00 | 33 | 1007.5 |
| 20260504021741 | 58 | 5 | 3.0 | 3.0 | 0.00 | 0.00 | 0.00 | 33 | 1007.5 |
| 20260504021238 | 58 | 358 | 4.0 | 6.0 | 0.00 | 0.00 | 0.00 | 33 | 1007.5 |
| 20260504020735 | 59 | 344 | 4.0 | 5.0 | 0.00 | 0.00 | 0.00 | 32 | 1007.3 |
| 20260504020232 | 64 | 349 | 2.0 | 2.0 | 0.00 | 0.00 | 0.00 | 30 | 1007.1 |
| 20260504015728 | 60 | 1 | 4.0 | 5.0 | 0.00 | 0.00 | 0.00 | 30 | 1007.1 |
| 20260504015224 | 62 | 343 | 3.0 | 3.0 | 0.00 | 0.00 | 0.00 | 30 | 1006.9 |
| 20260504014720 | 64 | 87 | 0.0 | 0.0 | 0.00 | 0.00 | 0.00 | 28 | 1006.8 |
| 20260504014217 | 65 | 83 | 1.0 | 2.0 | 0.00 | 0.00 | 0.00 | 28 | 1006.8 |
| 20260504013715 | 65 | 77 | 1.0 | 1.0 | 0.00 | 0.00 | 0.00 | 28 | 1006.8 |
| 20260504013212 | 66 | 79 | 1.0 | 1.0 | 0.00 | 0.00 | 0.00 | 27 | 1006.7 |
| 20260504012709 | 66 | 71 | 1.0 | 1.0 | 0.00 | 0.00 | 0.00 | 27 | 1006.7 |
| 20260504012207 | 66 | 106 | 0.0 | 1.0 | 0.00 | 0.00 | 0.00 | 27 | 1006.5 |
| 20260504011703 | 67 | 125 | 2.0 | 2.0 | 0.00 | 0.00 | 0.00 | 27 | 1006.7 |
| 20260504011200 | 67 | 101 | 1.0 | 2.0 | 0.00 | 0.00 | 0.00 | 26 | 1006.7 |
| 20260504010656 | 67 | 85 | 1.0 | 2.0 | 0.00 | 0.00 | 0.00 | 26 | 1006.9 |
| 20260504010151 | 67 | 109 | 3.0 | 3.0 | 0.00 | 0.00 | 0.00 | 26 | 1006.5 |
| 20260504005649 | 68 | 115 | 3.0 | 5.0 | 0.00 | 0.00 | 0.00 | 26 | 1006.4 |
| 20260504005145 | 68 | 115 | 3.0 | 3.0 | 0.00 | 0.00 | 0.00 | 25 | 1006.8 |
| 20260504004643 | 68 | 146 | 5.0 | 6.0 | 0.00 | 0.00 | 0.00 | 25 | 1006.8 |
| 20260504004140 | 69 | 157 | 6.0 | 7.0 | 0.00 | 0.00 | 0.00 | 25 | 1006.7 |
| 20260504003636 | 69 | 118 | 4.0 | 6.0 | 0.00 | 0.00 | 0.00 | 25 | 1006.8 |
| 20260504003133 | 70 | 143 | 9.0 | 11.0 | 0.00 | 0.00 | 0.00 | 25 | 1006.4 |
| 20260504002630 | 70 | 153 | 7.0 | 9.0 | 0.00 | 0.00 | 0.00 | 24 | 1006.9 |
| 20260504002128 | 69 | 181 | 6.0 | 7.0 | 0.00 | 0.00 | 0.00 | 24 | 1006.8 |
| 20260504001626 | 70 | 151 | 8.0 | 10.0 | 0.00 | 0.00 | 0.00 | 24 | 1006.9 |
| 20260504001121 | 69 | 144 | 7.0 | 8.0 | 0.00 | 0.00 | 0.00 | 24 | 1006.9 |
| 20260504000619 | 70 | 184 | 5.0 | 7.0 | 0.00 | 0.00 | 0.00 | 25 | 1007.1 |
| 20260504000116 | 70 | 138 | 7.0 | 9.0 | 0.00 | 0.00 | 0.00 | 24 | 1007.1 |
| 20260503235614 | 69 | 132 | 8.0 | 8.0 | 0.00 | 0.00 | 0.00 | 25 | 1007.1 |
| 20260503235110 | 69 | 190 | 2.0 | 2.0 | 0.00 | 0.00 | 0.00 | 25 | 1007.7 |
| 20260503234609 | 70 | 184 | 1.0 | 1.0 | 0.00 | 0.00 | 0.00 | 24 | 1007.5 |
| 20260503234106 | 70 | 209 | 2.0 | 2.0 | 0.00 | 0.00 | 0.00 | 24 | 1007.5 |
| 20260503233603 | 70 | 292 | 1.0 | 1.0 | 0.00 | 0.00 | 0.00 | 24 | 1007.3 |
| 20260503233058 | 70 | 194 | 2.0 | 2.0 | 0.00 | 0.00 | 0.00 | 24 | 1007.6 |
| 20260503232556 | 71 | 93 | 0.0 | 0.0 | 0.00 | 0.00 | 0.00 | 23 | 1007.6 |
| 20260503232053 | 70 | 138 | 0.0 | 0.0 | 0.00 | 0.00 | 0.00 | 24 | 1007.3 |
| 20260503231551 | 70 | 58 | 0.0 | 1.0 | 0.00 | 0.00 | 0.00 | 24 | 1007.3 |
| 20260503231047 | 71 | 129 | 10.0 | 11.0 | 0.00 | 0.00 | 0.00 | 23 | 1007.6 |
| 20260503230544 | 71 | 121 | 3.0 | 3.0 | 0.00 | 0.00 | 0.00 | 24 | 1007.6 |
| 20260503230041 | 70 | 51 | 0.0 | 0.0 | 0.00 | 0.00 | 0.00 | 24 | 1007.7 |
| 20260503225538 | 71 | 115 | 2.0 | 2.0 | 0.00 | 0.00 | 0.00 | 24 | 1007.7 |
| 20260503225033 | 71 | 194 | 2.0 | 2.0 | 0.00 | 0.00 | 0.00 | 23 | 1007.8 |
| 20260503224531 | 71 | 226 | 0.0 | 0.0 | 0.00 | 0.00 | 0.00 | 23 | 1007.8 |
| 20260503224028 | 70 | 116 | 0.0 | 0.0 | 0.00 | 0.00 | 0.00 | 24 | 1007.9 |
| 20260503223526 | 69 | 160 | 5.0 | 6.0 | 0.00 | 0.00 | 0.00 | 24 | 1007.8 |
| 20260503223021 | 70 | 173 | 1.0 | 3.0 | 0.00 | 0.00 | 0.00 | 24 | 1008.0 |
| 20260503222520 | 69 | 119 | 4.0 | 5.0 | 0.00 | 0.00 | 0.00 | 24 | 1007.9 |
| 20260503222018 | 70 | 190 | 4.0 | 5.0 | 0.00 | 0.00 | 0.00 | 24 | 1008.7 |
| 20260503221516 | 69 | 216 | 1.0 | 2.0 | 0.00 | 0.00 | 0.00 | 24 | 1008.4 |
| 20260503221013 | 69 | 217 | 11.0 | 11.0 | 0.00 | 0.00 | 0.00 | 24 | 1008.5 |
| 20260503220509 | 68 | 204 | 3.0 | 3.0 | 0.00 | 0.00 | 0.00 | 25 | 1008.6 |
| 20260503220006 | 69 | 157 | 6.0 | 7.0 | 0.00 | 0.00 | 0.00 | 25 | 1008.6 |
| 20260503215503 | 68 | 184 | 0.0 | 1.0 | 0.00 | 0.00 | 0.00 | 24 | 1008.7 |
| 20260503215000 | 69 | 173 | 5.0 | 7.0 | 0.00 | 0.00 | 0.00 | 24 | 1008.8 |
| 20260503214458 | 69 | 150 | 7.0 | 9.0 | 0.00 | 0.00 | 0.00 | 25 | 1009.0 |
| 20260503213955 | 69 | 137 | 0.0 | 0.0 | 0.00 | 0.00 | 0.00 | 25 | 1009.0 |
| 20260503213453 | 69 | 169 | 5.0 | 7.0 | 0.00 | 0.00 | 0.00 | 25 | 1008.8 |
| 20260503212949 | 69 | 183 | 8.0 | 8.0 | 0.00 | 0.00 | 0.00 | 25 | 1009.4 |
| 20260503212447 | 69 | 135 | 5.0 | 7.0 | 0.00 | 0.00 | 0.00 | 25 | 1009.2 |
| 20260503211944 | 69 | 211 | 7.0 | 9.0 | 0.00 | 0.00 | 0.00 | 25 | 1009.3 |
| 20260503211441 | 69 | 102 | 4.0 | 6.0 | 0.00 | 0.00 | 0.00 | 25 | 1009.2 |
| 20260503210936 | 69 | 129 | 6.0 | 7.0 | 0.00 | 0.00 | 0.00 | 25 | 1009.2 |
| 20260503210433 | 69 | 149 | 9.0 | 11.0 | 0.00 | 0.00 | 0.00 | 25 | 1009.4 |
| 20260503205928 | 68 | 123 | 5.0 | 6.0 | 0.00 | 0.00 | 0.00 | 26 | 1009.5 |